Location: Cercedilla
(40.7379°N, 4.0638°W)
Time: 06:33:05
(UTC+00:00)

STARLINK-1015 - Pass Details

Date: 07 June 2020
Orbit: 548 x 551 km, 53.0° (Epoch: 04 July)

Event Time Altitude Azimuth Distance (km) Brightness Sun altitude
Exits shadow 03:05:03 28° 220° (SW) 1,031 4.4 -15.2°
Maximum altitude 03:07:06 76° 139° (SE) 568 3.6 -15.0°
Drops below altitude 10° 03:11:14 10° 54° (NE) 1,822 7.6 -14.5°
Sets 03:13:29 0° 53° (NE) 2,718 8.9 -14.2°
